Location: *
(38.9555°S, 57.3572°E)
Time: 01:48:07
(UTC+00:00)

Okean-O - Pass Details

Date: 15 July 2020
Orbit: 638 x 641 km, 98.2° (Epoch: 06 August)

Event Time Altitude Azimuth Distance (km) Brightness Sun altitude
Exits shadow 15:01:18 29° 34° (NNE) 1,197 3.8 -21.7°
Drops below altitude 10° 15:03:48 10° 11° (N) 2,039 5.2 -22.2°
Sets 15:06:05 0° 3° (N) 2,939 6.1 -22.6°
